Location: Betra
(48.4113°N, 8.6634°E)
Time: 15:56:51
(UTC+00:00)

SL-8 R/B - Pass Details

Date: 23 May 2024
Orbit: 652 x 662 km, 48.4° (Epoch: 16 June)

Event Time Altitude Azimuth Distance (km) Brightness Sun altitude
Rises 00:58:23 0° 285° (WNW) 2,977 7.0 -17.7°
Reaches altitude 10° 01:00:48 10° 279° (W) 2,065 6.1 -17.5°
Maximum altitude 01:05:20 46° 207° (SSW) 885 3.9 -17.2°
Drops below altitude 10° 01:09:53 10° 135° (SE) 2,064 6.1 -16.9°
Sets 01:12:17 0° 129° (SE) 2,975 6.9 -16.7°
